sat.trackr.live / text

‹ back to catalog

STARLINK-3607

NORAD 51809 · 2022-017AT

PAYLOAD ACTIVE UNKNOWN

§ Identity

Operator
Country
US
Launch date
2022-02-25
Launch site
AFWTR
Launch vehicle
Mass (kg)
RCS (m²)

Purposes: comms

External: N2YO · Heavens-Above · Gunter

§ Orbital elements

Epoch: 2026-05-25T00:09:37.369728Z

Period
95.44 min
Inclination
53.2163°
Eccentricity
0.0001552
Mean motion
15.08837500 rev/d
Perigee alt
538.7 km
Apogee alt
540.8 km
Semi-major
6,917.9 km
B*
1.0615e-5
RAAN
356.4809°
Arg perigee
92.2861°
Mean anomaly
267.8309°
Rev number
23,558

§ Raw data

STARLINK-36071 51809U 22017AT  26145.00668252 -.00000119  00000+0  10615-4 0  99902 51809  53.2163 356.4809 0001552  92.2861 267.8309 15.08837500235586

JSON: /api/v1/satellites/51809 · /tle

For live sub-satellite position, see the globe view (requires WebGL).

§ Visibility from observer

Set your observer location to see the next 7 days of passes ≥ 10°. The values pass through the URL so the page stays shareable.

No JS? Fill the form by hand. The geolocation button needs JavaScript.